Temp
57 58 58 60 59 58 58 58 58 58 58 58 58 57 56 55 54 53 52 52 51 51
52 54 55 55 55 54 54 54 55 55 55 54 54 54 54 53 52 52 51 51 50 50
48 50 51 53 52 51 51 52 51 51 51 50 50 50 49 47 45 45 44 44 44 44
46 46 48 49 49 48 48 48 47 46 45 43 43 43 42 41 41 41 41 40 40 40
44 45 46 45 45 44 43 41 41 41 40 40 40 39 39 38 38 37 37 37 37 37
41 42 41 39 39 39 39 38 38 38 38 37 37 37 36 36 36 36 36 36 35 36
38 38 38 37 37 37 37 36 36 35 34 34 34 35 34 34 34 34 35 35 35 34
36 36 36 35 35 34 34 33 33 33 33 33 34 35 34 33 33 32 33 33 33 33
34 33 33 33 33 33 32 32 32 32 32 32 32 39 39 36 32 32 31 31 31 31
33 32 32 32 32 32 31 31 31 31 30 30 30 38 38 37 32 30 30 30 33 33
32 31 32 31 31 30 30 30 30 28 28 28 30 37 38 36 33 33 33 33 33 33
30 28 29 27 28 28 26 27 27 29 27 26 25 36 37 36 32 33 34 34 34 33
28 25 25 27 25 25 25 27 28 27 24 23 20 32 37 36 29 27 32 33 34 35
25 24 24 22 23 23 25 25 23 22 21 21 23 25 35 36 30 31 32 32 30 30
MSLP
1019.92 1020.07 1020.26 1020.56 1021.03 1021.31 1021.64 1021.74 1021.71 1021.99 1022.34 1022.61 1022.82 1022.94 1023.19 1023.47 1023.86 1024.21 1024.75 1025.12 1025.35 1025.52
1020.23 1020.33 1020.62 1020.98 1021.55 1021.73 1022.04 1022.19 1022.19 1022.41 1022.70 1023.04 1023.21 1023.36 1023.66 1023.80 1024.26 1024.64 1024.96 1025.30 1025.46 1025.55
1020.92 1021.12 1021.22 1021.36 1022.07 1022.30 1022.71 1022.74 1023.02 1023.17 1023.35 1023.81 1024.10 1024.16 1024.27 1024.66 1025.03 1025.09 1025.43 1025.67 1025.87 1026.09
1021.55 1021.88 1021.59 1022.03 1022.84 1023.16 1023.35 1023.59 1023.85 1024.06 1024.33 1024.68 1025.02 1025.11 1025.21 1025.50 1025.74 1025.92 1026.18 1026.30 1026.31 1026.34
1022.15 1022.38 1022.42 1023.24 1023.79 1023.98 1024.19 1024.43 1024.70 1024.88 1025.12 1025.37 1025.70 1025.94 1025.98 1026.15 1026.27 1026.39 1026.61 1026.75 1026.86 1026.85
1022.79 1023.15 1023.66 1024.06 1024.53 1024.77 1024.85 1025.04 1025.28 1025.37 1025.78 1026.19 1026.35 1026.51 1026.62 1026.64 1026.74 1026.82 1026.93 1026.99 1027.11 1027.17
1023.61 1024.00 1024.48 1024.51 1025.14 1025.49 1025.72 1025.81 1026.09 1026.16 1026.39 1026.61 1026.63 1026.73 1026.92 1026.94 1027.01 1027.18 1027.23 1027.19 1027.18 1027.11
1024.38 1024.62 1025.06 1025.23 1025.83 1026.20 1026.34 1026.53 1026.57 1026.61 1026.77 1026.86 1026.87 1027.06 1027.16 1027.24 1027.28 1027.39 1027.40 1027.29 1027.25 1027.06
1024.94 1025.47 1025.58 1025.87 1026.29 1026.60 1026.89 1026.95 1026.93 1027.17 1027.33 1027.39 1027.50 1027.18 1027.04 1027.17 1027.48 1027.57 1027.84 1027.55 1027.38 1027.37
1025.63 1025.98 1026.12 1026.42 1026.68 1027.01 1027.29 1027.39 1027.53 1027.69 1027.74 1027.89 1027.87 1027.32 1027.16 1027.14 1027.43 1027.39 1027.48 1027.55 1027.36 1027.02
1026.08 1026.36 1026.59 1026.73 1027.01 1027.27 1027.47 1027.59 1027.74 1027.96 1027.93 1027.80 1027.66 1027.28 1027.17 1027.08 1027.25 1027.43 1027.49 1027.26 1027.31 1027.03
1026.10 1026.53 1026.89 1027.19 1027.38 1027.63 1027.87 1028.05 1028.08 1028.16 1028.07 1028.07 1027.87 1027.35 1027.08 1027.04 1027.19 1027.35 1027.25 1026.97 1026.88 1026.72
1026.56 1026.85 1027.25 1027.43 1027.71 1027.95 1027.97 1028.08 1028.16 1028.14 1028.15 1028.17 1028.12 1027.59 1027.01 1026.82 1027.05 1027.01 1026.79 1026.67 1026.42 1026.14
1026.81 1027.02 1027.31 1027.60 1027.81 1027.90 1028.01 1028.10 1028.39 1028.60 1028.55 1028.39 1028.24 1027.81 1027.11 1026.59 1026.65 1026.69 1026.43 1026.32 1026.28 1025.87
Wind_Speed
6 4 2 5 3 3 2 3 1 3 3 2 1 1 2 1 2 2 2 2 2 2
5 7 7 8 5 4 5 4 6 7 6 6 6 5 4 4 3 3 3 2 2 2
6 6 5 9 8 7 5 5 6 7 7 7 7 6 6 5 5 5 4 4 5 4
6 6 7 10 7 6 6 6 7 7 7 7 6 6 7 6 6 7 6 5 5 5
7 7 11 9 7 6 8 6 7 7 7 7 7 6 6 6 5 6 5 5 5 5
8 10 9 8 7 6 7 7 7 7 7 6 6 6 6 5 5 5 4 4 5 5
7 8 7 8 7 7 5 7 6 6 6 6 5 6 5 5 5 5 4 4 4 4
6 7 6 8 7 6 6 5 5 6 6 6 5 4 4 5 5 5 5 5 4 4
7 6 6 7 6 6 6 6 6 6 6 6 4 6 6 5 3 4 4 5 4 5
6 6 6 6 6 6 6 5 6 6 5 4 2 7 7 7 4 4 4 4 6 6
6 6 5 6 6 5 4 5 3 2 2 1 3 7 8 7 4 5 5 4 4 4
5 5 5 5 5 4 3 2 2 2 4 4 3 6 7 6 2 5 5 4 5 4
5 5 5 5 4 2 2 2 1 3 2 3 3 6 7 6 1 2 4 3 5 8
4 5 4 4 2 2 3 4 5 3 4 4 2 5 9 10 1 3 3 5 5 4
Wind_Direction
187 180 160 122 112 96 104 97 74 185 171 221 217 208 168 130 156 165 212 256 252 258
109 119 124 96 86 95 78 72 72 70 86 72 64 66 72 81 62 60 52 30 349 338
80 78 102 96 84 77 74 74 79 77 72 68 56 52 61 61 36 59 36 30 17 6
77 74 81 84 81 75 73 70 72 71 74 70 64 54 66 60 45 50 36 26 21 2
83 79 80 81 79 77 85 72 82 81 77 72 64 55 62 63 53 55 41 22 16 355
82 87 90 87 80 76 84 80 72 77 77 73 69 68 59 66 58 51 41 15 358 337
95 96 98 95 87 82 78 83 77 74 85 84 82 68 60 53 44 29 17 1 344 336
95 94 98 91 88 85 79 85 89 85 68 58 55 37 39 37 30 16 354 353 348 339
96 101 99 99 102 95 84 69 66 57 54 45 33 28 30 50 34 21 358 352 357 348
112 109 102 102 91 76 66 65 61 54 50 46 29 33 36 38 43 33 23 5 356 347
120 111 108 98 91 81 75 72 72 55 55 29 17 30 37 39 35 21 357 346 328 314
131 119 109 101 97 81 76 63 45 6 16 18 352 16 27 33 20 356 339 327 303 295
114 116 110 109 107 102 101 80 47 26 8 318 311 333 2 9 253 298 324 299 293 297
120 120 120 123 100 108 96 76 48 25 338 338 5 349 355 346 312 279 312 322 301 269